DAL1086 KRDU-KLGA

Flight info

Callsign DAL1086
Flight time 1h 6m
Altitude 37000
Route BEXGO5 BOUSY GEARS Q87 HURTS PROUD2
Aircraft A320/M-SDE3FGHIRWY/LB1

Departure

Time 2026-05-07 00:34
Airport Raleigh-Durham International Airport (KRDU)

Arrival

Time 2026-05-07 01:41
Airport LaGuardia Airport (KLGA)
Time Latitude Longitude Altitude Speed Heading
2026-05-06 23:58 35.87896 -78.79103 413 ft 0 kts 305°
2026-05-07 00:07 35.87892 -78.79096 412 ft 3 kts 307°
2026-05-07 00:07 35.87879 -78.79077 412 ft 3 kts 323°
2026-05-07 00:07 35.87865 -78.79067 411 ft 4 kts 12°
2026-05-07 00:07 35.87856 -78.79071 419 ft 2 kts 45°
2026-05-07 00:11 35.87892 -78.79027 415 ft 7 kts 45°
2026-05-07 00:11 35.87924 -78.78992 420 ft 10 kts 36°
2026-05-07 00:11 35.87982 -78.78960 420 ft 11 kts
2026-05-07 00:12 35.88020 -78.78979 412 ft 9 kts 321°
2026-05-07 00:12 35.88073 -78.79040 427 ft 8 kts 318°
2026-05-07 00:12 35.88111 -78.79056 421 ft 8 kts
2026-05-07 00:12 35.88178 -78.78996 416 ft 16 kts 46°
2026-05-07 00:13 35.88254 -78.78898 426 ft 15 kts 46°
2026-05-07 00:13 35.88328 -78.78804 419 ft 16 kts 44°
2026-05-07 00:13 35.88408 -78.78709 418 ft 16 kts 44°
2026-05-07 00:13 35.88481 -78.78620 430 ft 14 kts 45°
2026-05-07 00:14 35.88548 -78.78537 424 ft 14 kts 45°
2026-05-07 00:14 35.88616 -78.78453 421 ft 14 kts 45°
2026-05-07 00:14 35.88680 -78.78374 429 ft 13 kts 45°
2026-05-07 00:14 35.88745 -78.78293 426 ft 15 kts 45°
2026-05-07 00:15 35.88821 -78.78199 426 ft 16 kts 45°
2026-05-07 00:15 35.88898 -78.78103 418 ft 16 kts 45°
2026-05-07 00:15 35.88975 -78.77993 414 ft 18 kts 67°
2026-05-07 00:15 35.89022 -78.77872 415 ft 11 kts 45°
2026-05-07 00:16 35.89072 -78.77810 419 ft 10 kts 45°
2026-05-07 00:16 35.89121 -78.77749 421 ft 10 kts 45°
2026-05-07 00:16 35.89170 -78.77688 420 ft 10 kts 45°
2026-05-07 00:16 35.89218 -78.77649 422 ft 7 kts
2026-05-07 00:17 35.89248 -78.77665 422 ft 1 kts 327°
2026-05-07 00:17 35.89249 -78.77666 422 ft 0 kts 325°
2026-05-07 00:17 35.89251 -78.77668 421 ft 2 kts 323°
2026-05-07 00:17 35.89274 -78.77694 430 ft 5 kts 316°
2026-05-07 00:18 35.89294 -78.77719 428 ft 3 kts 315°
2026-05-07 00:18 35.89300 -78.77727 431 ft 0 kts 315°
2026-05-07 00:18 35.89301 -78.77727 431 ft 0 kts 315°
2026-05-07 00:19 35.89320 -78.77750 432 ft 8 kts 315°
2026-05-07 00:20 35.89358 -78.77814 423 ft 10 kts 280°
2026-05-07 00:20 35.89333 -78.77873 428 ft 0 kts 223°
2026-05-07 00:21 35.89293 -78.77920 429 ft 20 kts 223°
2026-05-07 00:21 35.89172 -78.78067 416 ft 26 kts 225°
2026-05-07 00:21 35.89041 -78.78225 423 ft 26 kts 220°
2026-05-07 00:22 35.88929 -78.78199 421 ft 7 kts 134°
2026-05-07 00:22 35.88928 -78.78197 420 ft 0 kts 134°
2026-05-07 00:23 35.88925 -78.78193 430 ft 4 kts 135°
2026-05-07 00:24 35.88921 -78.78188 422 ft 0 kts 136°
2026-05-07 00:25 35.88920 -78.78187 422 ft 1 kts 136°
2026-05-07 00:25 35.88899 -78.78161 429 ft 9 kts 127°
2026-05-07 00:26 35.88916 -78.78083 424 ft 11 kts 50°
2026-05-07 00:26 35.88970 -78.78003 416 ft 13 kts 62°
2026-05-07 00:26 35.89006 -78.77897 424 ft 13 kts 57°
2026-05-07 00:26 35.89066 -78.77817 422 ft 12 kts 46°
2026-05-07 00:27 35.89127 -78.77740 418 ft 13 kts 45°
2026-05-07 00:27 35.89188 -78.77667 424 ft 10 kts 38°
2026-05-07 00:27 35.89239 -78.77658 425 ft 5 kts 341°
2026-05-07 00:27 35.89258 -78.77674 416 ft 2 kts 316°
2026-05-07 00:28 35.89260 -78.77676 416 ft 0 kts 316°
2026-05-07 00:28 35.89266 -78.77684 424 ft 0 kts 315°
2026-05-07 00:30 35.89276 -78.77697 430 ft 3 kts 315°
2026-05-07 00:30 35.89288 -78.77711 425 ft 1 kts 315°
2026-05-07 00:30 35.89300 -78.77726 431 ft 0 kts 315°
2026-05-07 00:32 35.89321 -78.77752 432 ft 10 kts 315°
2026-05-07 00:32 35.89361 -78.77822 424 ft 10 kts 271°
2026-05-07 00:33 35.89341 -78.77862 424 ft 0 kts 223°
2026-05-07 00:33 35.89323 -78.77883 420 ft 19 kts 223°
2026-05-07 00:34 35.89050 -78.78220 424 ft 89 kts 225°
2026-05-07 00:34 35.88458 -78.78947 422 ft 148 kts 224°
2026-05-07 00:34 35.87655 -78.79900 755 ft 164 kts 223°
2026-05-07 00:34 35.86841 -78.80843 1419 ft 156 kts 226°
2026-05-07 00:35 35.86099 -78.81783 2147 ft 152 kts 228°
2026-05-07 00:35 35.85415 -78.82747 2812 ft 151 kts 231°
2026-05-07 00:35 35.84752 -78.83812 3298 ft 166 kts 240°
2026-05-07 00:35 35.84571 -78.85271 3592 ft 188 kts 278°
2026-05-07 00:36 35.85240 -78.86751 3971 ft 208 kts 305°
2026-05-07 00:36 35.86277 -78.88051 4424 ft 220 kts 310°
2026-05-07 00:36 35.87557 -78.89286 4705 ft 247 kts 323°
2026-05-07 00:36 35.89252 -78.89969 5272 ft 269 kts 351°
2026-05-07 00:37 35.91109 -78.89422 5974 ft 288 kts 25°
2026-05-07 00:37 35.92665 -78.87794 6657 ft 299 kts 42°
2026-05-07 00:37 35.94071 -78.85876 7345 ft 303 kts 44°
2026-05-07 00:37 35.95480 -78.83913 8000 ft 308 kts 44°
2026-05-07 00:38 35.96928 -78.81928 8683 ft 312 kts 44°
2026-05-07 00:38 35.98397 -78.79944 9391 ft 316 kts 44°
2026-05-07 00:38 35.99885 -78.77952 10053 ft 321 kts 43°
2026-05-07 00:38 36.01455 -78.75862 10497 ft 336 kts 43°
2026-05-07 00:39 36.03092 -78.73692 10825 ft 352 kts 43°
2026-05-07 00:39 36.04768 -78.71466 11327 ft 361 kts 43°
2026-05-07 00:39 36.06488 -78.69180 11802 ft 366 kts 43°
2026-05-07 00:39 36.08223 -78.66872 11970 ft 367 kts 43°
2026-05-07 00:40 36.09977 -78.64538 12341 ft 371 kts 43°
2026-05-07 00:40 36.11735 -78.62198 13095 ft 371 kts 43°
2026-05-07 00:40 36.13493 -78.59857 13858 ft 372 kts 43°
2026-05-07 00:40 36.15264 -78.57498 14490 ft 375 kts 43°
2026-05-07 00:41 36.17030 -78.55146 15064 ft 380 kts 43°
2026-05-07 00:41 36.18841 -78.52731 15653 ft 384 kts 42°
2026-05-07 00:41 36.20664 -78.50299 16247 ft 389 kts 42°
2026-05-07 00:41 36.22523 -78.47818 16800 ft 394 kts 41°
2026-05-07 00:42 36.24399 -78.45311 17386 ft 399 kts 41°
2026-05-07 00:42 36.26301 -78.42775 17959 ft 402 kts 40°
2026-05-07 00:42 36.28353 -78.40444 18503 ft 400 kts 32°
2026-05-07 00:42 36.30554 -78.38327 19007 ft 402 kts 30°
2026-05-07 00:43 36.32799 -78.36243 19525 ft 405 kts 30°
2026-05-07 00:43 36.35072 -78.34141 20051 ft 409 kts 30°
2026-05-07 00:43 36.37361 -78.32019 20573 ft 412 kts 30°
2026-05-07 00:43 36.39673 -78.29870 21088 ft 416 kts 30°
2026-05-07 00:44 36.42002 -78.27702 21608 ft 420 kts 30°
2026-05-07 00:44 36.44307 -78.25553 22091 ft 424 kts 30°
2026-05-07 00:44 36.46711 -78.23310 22477 ft 429 kts 30°
2026-05-07 00:44 36.49080 -78.21098 22890 ft 434 kts 30°
2026-05-07 00:45 36.51533 -78.18795 23320 ft 437 kts 30°
2026-05-07 00:45 36.53965 -78.16504 23699 ft 441 kts 30°
2026-05-07 00:45 36.56401 -78.14207 24109 ft 444 kts 30°
2026-05-07 00:45 36.58863 -78.11883 24496 ft 447 kts 31°
2026-05-07 00:46 36.61362 -78.09522 24886 ft 450 kts 31°
2026-05-07 00:46 36.63863 -78.07158 25299 ft 453 kts 31°
2026-05-07 00:46 36.66384 -78.04775 25620 ft 457 kts 31°
2026-05-07 00:46 36.68925 -78.02370 25976 ft 460 kts 31°
2026-05-07 00:47 36.71479 -77.99949 26344 ft 463 kts 31°
2026-05-07 00:47 36.74047 -77.97514 26690 ft 466 kts 31°
2026-05-07 00:47 36.76637 -77.95055 27020 ft 468 kts 32°
2026-05-07 00:47 36.79222 -77.92589 27425 ft 469 kts 33°
2026-05-07 00:48 36.81682 -77.89837 27745 ft 477 kts 42°
2026-05-07 00:48 36.83814 -77.86638 28021 ft 484 kts 49°
2026-05-07 00:48 36.85837 -77.83226 28284 ft 489 kts 51°
2026-05-07 00:48 36.87781 -77.79757 28440 ft 496 kts 52°
2026-05-07 00:49 36.89725 -77.76197 28721 ft 499 kts 52°
2026-05-07 00:49 36.91681 -77.72598 29035 ft 500 kts 52°
2026-05-07 00:49 36.93645 -77.68997 29339 ft 502 kts 52°
2026-05-07 00:49 36.95630 -77.65380 29629 ft 505 kts 52°
2026-05-07 00:50 36.97623 -77.61768 29909 ft 507 kts 52°
2026-05-07 00:50 36.99641 -77.58124 30153 ft 510 kts 52°
2026-05-07 00:50 37.01661 -77.54479 30457 ft 510 kts 51°
2026-05-07 00:50 37.03693 -77.50814 30678 ft 513 kts 51°
2026-05-07 00:51 37.05735 -77.47128 30904 ft 517 kts 50°
2026-05-07 00:51 37.07807 -77.43388 30953 ft 525 kts 50°
2026-05-07 00:51 37.09986 -77.39727 31219 ft 520 kts 43°
2026-05-07 00:51 37.12460 -77.36467 31586 ft 515 kts 38°
2026-05-07 00:52 37.14998 -77.33323 31956 ft 513 kts 36°
2026-05-07 00:52 37.17563 -77.30199 32313 ft 512 kts 36°
2026-05-07 00:52 37.20125 -77.27095 32666 ft 511 kts 35°
2026-05-07 00:52 37.22654 -77.24035 33009 ft 511 kts 34°
2026-05-07 00:53 37.25208 -77.20945 33372 ft 509 kts 34°
2026-05-07 00:53 37.27763 -77.17854 33708 ft 510 kts 33°
2026-05-07 00:53 37.30323 -77.14757 33926 ft 512 kts 33°
2026-05-07 00:53 37.32883 -77.11655 34195 ft 511 kts 33°
2026-05-07 00:54 37.35443 -77.08547 34489 ft 510 kts 33°
2026-05-07 00:54 37.37993 -77.05450 34779 ft 509 kts 33°
2026-05-07 00:54 37.40539 -77.02355 35057 ft 508 kts 33°
2026-05-07 00:54 37.43076 -76.99268 35330 ft 507 kts 32°
2026-05-07 00:55 37.45662 -76.96323 35580 ft 496 kts 25°
2026-05-07 00:55 37.48491 -76.93974 35802 ft 481 kts 16°
2026-05-07 00:55 37.51427 -76.91959 35953 ft 478 kts 14°
2026-05-07 00:55 37.54384 -76.90004 36217 ft 477 kts 13°
2026-05-07 00:56 37.57322 -76.88066 36499 ft 476 kts 13°
2026-05-07 00:56 37.60213 -76.86152 36794 ft 475 kts 13°
2026-05-07 00:56 37.63145 -76.84208 36912 ft 475 kts 13°
2026-05-07 00:56 37.66066 -76.82265 36922 ft 476 kts 13°
2026-05-07 00:57 37.71984 -76.78330 36909 ft 483 kts 13°
2026-05-07 00:57 37.77867 -76.74380 36898 ft 474 kts 13°
2026-05-07 00:58 37.83691 -76.70480 36892 ft 473 kts 13°
2026-05-07 00:58 37.89514 -76.66647 36908 ft 470 kts 12°
2026-05-07 00:59 37.98272 -76.61112 36879 ft 472 kts 12°
2026-05-07 01:00 38.04161 -76.57377 36875 ft 472 kts 12°
2026-05-07 01:00 38.10044 -76.53637 36878 ft 472 kts 12°
2026-05-07 01:01 38.15929 -76.49888 36883 ft 473 kts 12°
2026-05-07 01:01 38.21807 -76.46134 36889 ft 471 kts 12°
2026-05-07 01:02 38.27616 -76.42404 36888 ft 473 kts 14°
2026-05-07 01:02 38.30455 -76.40152 36885 ft 488 kts 22°
2026-05-07 01:02 38.33206 -76.37561 36924 ft 492 kts 24°
2026-05-07 01:03 38.38660 -76.32220 36884 ft 494 kts 24°
2026-05-07 01:03 38.44111 -76.26869 36880 ft 495 kts 24°
2026-05-07 01:04 38.49542 -76.21541 36887 ft 495 kts 24°
2026-05-07 01:04 38.54978 -76.16202 36681 ft 495 kts 24°
2026-05-07 01:04 38.57717 -76.13509 36401 ft 496 kts 24°
2026-05-07 01:05 38.60448 -76.10822 36167 ft 496 kts 24°
2026-05-07 01:05 38.62265 -76.09035 35833 ft 495 kts 24°
2026-05-07 01:05 38.66006 -76.05500 34628 ft 502 kts 24°
2026-05-07 01:06 38.71336 -76.00540 32760 ft 507 kts 25°
2026-05-07 01:06 38.73720 -75.98312 32187 ft 503 kts 25°
2026-05-07 01:06 38.76545 -75.95664 31500 ft 502 kts 25°
2026-05-07 01:06 38.79359 -75.93031 30803 ft 504 kts 25°
2026-05-07 01:07 38.82208 -75.90364 30083 ft 507 kts 26°
2026-05-07 01:07 38.85051 -75.87699 29282 ft 509 kts 26°
2026-05-07 01:07 38.87899 -75.85015 28800 ft 499 kts 26°
2026-05-07 01:07 38.90670 -75.82400 27932 ft 494 kts 26°
2026-05-07 01:08 38.93389 -75.79838 27285 ft 487 kts 26°
2026-05-07 01:08 38.96083 -75.77289 26817 ft 473 kts 26°
2026-05-07 01:08 38.98689 -75.74815 26676 ft 457 kts 25°
2026-05-07 01:08 39.01247 -75.72400 26832 ft 458 kts 25°
2026-05-07 01:09 39.03824 -75.69972 26872 ft 458 kts 25°
2026-05-07 01:09 39.06389 -75.67549 26873 ft 458 kts 25°
2026-05-07 01:09 39.08959 -75.65116 26871 ft 458 kts 25°
2026-05-07 01:09 39.11525 -75.62684 26870 ft 458 kts 25°
2026-05-07 01:10 39.14097 -75.60241 26905 ft 458 kts 25°
2026-05-07 01:10 39.16666 -75.57799 26872 ft 459 kts 25°
2026-05-07 01:10 39.19236 -75.55354 26740 ft 458 kts 25°
2026-05-07 01:10 39.21803 -75.52911 26011 ft 463 kts 25°
2026-05-07 01:11 39.24413 -75.50502 25240 ft 466 kts 24°
2026-05-07 01:11 39.27082 -75.48128 24675 ft 465 kts 24°
2026-05-07 01:11 39.29750 -75.45765 24184 ft 463 kts 24°
2026-05-07 01:11 39.32391 -75.43422 23720 ft 458 kts 24°
2026-05-07 01:12 39.35002 -75.41101 22998 ft 452 kts 25°
2026-05-07 01:12 39.37578 -75.38810 22263 ft 445 kts 25°
2026-05-07 01:12 39.40112 -75.36554 21505 ft 439 kts 25°
2026-05-07 01:12 39.42612 -75.34327 20838 ft 431 kts 26°
2026-05-07 01:13 39.45042 -75.32157 20422 ft 418 kts 26°
2026-05-07 01:13 39.47368 -75.30077 20057 ft 405 kts 26°
2026-05-07 01:13 39.49675 -75.28019 19718 ft 401 kts 26°
2026-05-07 01:13 39.51955 -75.25941 19361 ft 400 kts 27°
2026-05-07 01:14 39.54205 -75.23846 19022 ft 397 kts 28°
2026-05-07 01:14 39.56453 -75.21741 18650 ft 395 kts 28°
2026-05-07 01:14 39.58676 -75.19657 18306 ft 393 kts 29°
2026-05-07 01:14 39.60874 -75.17595 17924 ft 390 kts 29°
2026-05-07 01:15 39.63046 -75.15556 17656 ft 387 kts 29°
2026-05-07 01:15 39.65227 -75.13508 17345 ft 387 kts 29°
2026-05-07 01:15 39.67401 -75.11479 17053 ft 384 kts 28°
2026-05-07 01:15 39.69613 -75.09531 16709 ft 382 kts 27°
2026-05-07 01:16 39.71812 -75.07639 16329 ft 379 kts 27°
2026-05-07 01:16 39.74018 -75.05745 15984 ft 377 kts 27°
2026-05-07 01:16 39.76201 -75.03870 15665 ft 375 kts 27°
2026-05-07 01:16 39.78380 -75.01995 15337 ft 373 kts 27°
2026-05-07 01:17 39.80543 -75.00132 15013 ft 372 kts 27°
2026-05-07 01:17 39.82699 -74.98273 14688 ft 371 kts 27°
2026-05-07 01:17 39.84816 -74.96436 14371 ft 370 kts 28°
2026-05-07 01:17 39.86938 -74.94536 14047 ft 369 kts 30°
2026-05-07 01:18 39.89043 -74.92630 13724 ft 368 kts 30°
2026-05-07 01:18 39.91135 -74.90725 13372 ft 367 kts 31°
2026-05-07 01:18 39.93069 -74.88535 13053 ft 369 kts 41°
2026-05-07 01:18 39.94833 -74.86093 12719 ft 368 kts 44°
2026-05-07 01:19 39.96547 -74.83629 12395 ft 366 kts 44°
2026-05-07 01:19 39.98249 -74.81174 12080 ft 363 kts 44°
2026-05-07 01:19 39.99940 -74.78739 11760 ft 360 kts 44°
2026-05-07 01:19 40.01601 -74.76352 11449 ft 358 kts 44°
2026-05-07 01:20 40.03271 -74.73953 11127 ft 355 kts 44°
2026-05-07 01:20 40.04921 -74.71582 10820 ft 353 kts 44°
2026-05-07 01:20 40.06559 -74.69227 10585 ft 345 kts 44°
2026-05-07 01:20 40.08162 -74.66919 10332 ft 337 kts 44°
2026-05-07 01:21 40.09723 -74.64673 10054 ft 330 kts 44°
2026-05-07 01:21 40.11252 -74.62473 9810 ft 327 kts 43°
2026-05-07 01:21 40.12795 -74.60253 9615 ft 330 kts 44°
2026-05-07 01:21 40.14329 -74.58045 9441 ft 330 kts 44°
2026-05-07 01:22 40.15872 -74.55821 9266 ft 329 kts 44°
2026-05-07 01:22 40.17409 -74.53603 9092 ft 327 kts 44°
2026-05-07 01:22 40.18911 -74.51434 8936 ft 326 kts 44°
2026-05-07 01:22 40.20459 -74.49268 8744 ft 323 kts 41°
2026-05-07 01:23 40.22060 -74.47206 8586 ft 321 kts 40°
2026-05-07 01:23 40.23674 -74.45170 8427 ft 321 kts 39°
2026-05-07 01:23 40.25261 -74.43172 8267 ft 320 kts 39°
2026-05-07 01:23 40.26882 -74.41128 8094 ft 319 kts 39°
2026-05-07 01:24 40.28471 -74.39123 8032 ft 319 kts 39°
2026-05-07 01:24 40.30080 -74.37091 8014 ft 321 kts 39°
2026-05-07 01:24 40.31691 -74.35055 8008 ft 323 kts 39°
2026-05-07 01:24 40.33302 -74.33010 8011 ft 321 kts 40°
2026-05-07 01:25 40.34904 -74.30975 8012 ft 320 kts 39°
2026-05-07 01:25 40.36496 -74.28959 8010 ft 320 kts 39°
2026-05-07 01:25 40.38100 -74.26926 8010 ft 320 kts 39°
2026-05-07 01:25 40.39697 -74.24901 7910 ft 318 kts 39°
2026-05-07 01:26 40.41287 -74.22881 7441 ft 318 kts 39°
2026-05-07 01:26 40.42874 -74.20862 7084 ft 316 kts 39°
2026-05-07 01:26 40.44441 -74.18868 7006 ft 313 kts 40°
2026-05-07 01:26 40.46007 -74.16874 7002 ft 314 kts 39°
2026-05-07 01:27 40.47578 -74.14874 7006 ft 316 kts 40°
2026-05-07 01:27 40.49137 -74.12887 7000 ft 317 kts 40°
2026-05-07 01:27 40.50726 -74.10860 7002 ft 317 kts 40°
2026-05-07 01:27 40.52395 -74.09014 6995 ft 312 kts 27°
2026-05-07 01:28 40.54329 -74.07826 6692 ft 302 kts 11°
2026-05-07 01:28 40.56332 -74.07047 6333 ft 296 kts
2026-05-07 01:28 40.58282 -74.06352 6038 ft 290 kts
2026-05-07 01:28 40.60219 -74.05675 5887 ft 279 kts
2026-05-07 01:29 40.62039 -74.05034 5740 ft 268 kts
2026-05-07 01:29 40.63784 -74.04407 5618 ft 252 kts
2026-05-07 01:29 40.65450 -74.03808 5262 ft 247 kts
2026-05-07 01:29 40.67101 -74.03220 4875 ft 244 kts
2026-05-07 01:30 40.68727 -74.02653 4503 ft 240 kts
2026-05-07 01:30 40.70338 -74.02102 4137 ft 237 kts
2026-05-07 01:30 40.71938 -74.01567 4006 ft 236 kts
2026-05-07 01:30 40.73525 -74.01033 4010 ft 235 kts
2026-05-07 01:31 40.75109 -74.00499 4007 ft 235 kts
2026-05-07 01:31 40.76682 -73.99966 4011 ft 237 kts
2026-05-07 01:31 40.78280 -73.99422 3981 ft 237 kts
2026-05-07 01:31 40.79879 -73.98878 3983 ft 237 kts
2026-05-07 01:32 40.81472 -73.98325 3973 ft 236 kts
2026-05-07 01:32 40.83034 -73.97558 3905 ft 244 kts 22°
2026-05-07 01:32 40.84510 -73.96408 3496 ft 245 kts 27°
2026-05-07 01:32 40.85920 -73.95220 3192 ft 237 kts 27°
2026-05-07 01:33 40.87301 -73.94052 3001 ft 234 kts 27°
2026-05-07 01:33 40.88686 -73.92887 2984 ft 236 kts 27°
2026-05-07 01:33 40.90062 -73.91719 2981 ft 235 kts 27°
2026-05-07 01:33 40.91439 -73.90555 2985 ft 234 kts 27°
2026-05-07 01:34 40.92810 -73.89385 2983 ft 234 kts 27°
2026-05-07 01:34 40.94170 -73.88234 2982 ft 234 kts 27°
2026-05-07 01:34 40.95544 -73.87060 2991 ft 235 kts 27°
2026-05-07 01:34 40.96822 -73.85718 2819 ft 240 kts 46°
2026-05-07 01:35 40.97507 -73.83699 2427 ft 243 kts 80°
2026-05-07 01:35 40.97396 -73.81500 2085 ft 238 kts 103°
2026-05-07 01:35 40.96990 -73.79440 1983 ft 221 kts 110°
2026-05-07 01:35 40.96248 -73.77809 1975 ft 200 kts 145°
2026-05-07 01:36 40.95044 -73.77039 1995 ft 188 kts 172°
2026-05-07 01:36 40.93770 -73.76681 1997 ft 188 kts 176°
2026-05-07 01:36 40.92481 -73.76402 1990 ft 187 kts 183°
2026-05-07 01:36 40.91239 -73.76655 1993 ft 177 kts 206°
2026-05-07 01:37 40.90177 -73.77388 1993 ft 173 kts 219°
2026-05-07 01:37 40.89166 -73.78254 1991 ft 174 kts 219°
2026-05-07 01:37 40.88149 -73.79104 1992 ft 172 kts 218°
2026-05-07 01:37 40.87136 -73.79943 1973 ft 172 kts 218°
2026-05-07 01:38 40.86132 -73.80774 1774 ft 166 kts 218°
2026-05-07 01:38 40.85203 -73.81541 1570 ft 148 kts 219°
2026-05-07 01:38 40.84371 -73.82234 1346 ft 134 kts 219°
2026-05-07 01:38 40.83605 -73.82872 1172 ft 128 kts 218°
2026-05-07 01:39 40.82857 -73.83493 1000 ft 127 kts 217°
2026-05-07 01:39 40.82105 -73.84118 840 ft 128 kts 215°
2026-05-07 01:39 40.81348 -73.84744 671 ft 127 kts 213°
2026-05-07 01:39 40.80612 -73.85356 517 ft 123 kts 212°
2026-05-07 01:40 40.79900 -73.85942 387 ft 122 kts 211°
2026-05-07 01:40 40.79178 -73.86541 214 ft 122 kts 212°
2026-05-07 01:40 40.78457 -73.87142 45 ft 123 kts 212°
2026-05-07 01:40 40.77796 -73.87686 22 ft 94 kts 211°
2026-05-07 01:41 40.77396 -73.88017 22 ft 42 kts 211°
2026-05-07 01:41 40.77229 -73.88152 23 ft 25 kts 211°
2026-05-07 01:41 40.77087 -73.88236 26 ft 16 kts 162°
2026-05-07 01:41 40.77060 -73.88154 26 ft 0 kts 55°
2026-05-07 01:43 40.77061 -73.88152 25 ft 2 kts 55°
2026-05-07 01:43 40.77103 -73.88108 23 ft 13 kts 32°
2026-05-07 01:43 40.77183 -73.88043 26 ft 13 kts 32°
2026-05-07 01:43 40.77261 -73.87978 22 ft 14 kts 32°
2026-05-07 01:44 40.77346 -73.87908 23 ft 15 kts 32°
2026-05-07 01:44 40.77425 -73.87842 27 ft 12 kts 32°
2026-05-07 01:44 40.77496 -73.87783 26 ft 12 kts 32°
2026-05-07 01:44 40.77572 -73.87721 29 ft 13 kts 31°
2026-05-07 01:45 40.77611 -73.87628 26 ft 12 kts 70°
2026-05-07 01:45 40.77668 -73.87557 28 ft 12 kts 32°
2026-05-07 01:45 40.77721 -73.87478 24 ft 12 kts 109°
2026-05-07 01:45 40.77679 -73.87404 22 ft 5 kts 127°
2026-05-07 01:46 40.77654 -73.87387 22 ft 4 kts 162°
2026-05-07 01:46 40.77642 -73.87383 22 ft 0 kts 171°
2026-05-07 01:46 40.77635 -73.87382 22 ft 1 kts 171°
2026-05-07 01:46 40.77633 -73.87381 22 ft 0 kts 171°